TimeCST,TemperatureF,Dew PointF,Humidity,Sea Level PressureIn,VisibilityMPH,Wind Direction,Wind SpeedMPH,Gust SpeedMPH,PrecipitationIn,Events,Conditions,WindDirDegrees,DateUTC
12:15 AM,24.8,17.6,74,29.99,10.0,North,17.3,21.9,N/A,,Overcast,360,2012-12-26 06:15:00
12:35 AM,24.8,15.8,69,30.00,10.0,North,13.8,20.7,N/A,,Overcast,360,2012-12-26 06:35:00
12:55 AM,24.8,15.8,69,30.00,10.0,North,13.8,-,N/A,,Overcast,360,2012-12-26 06:55:00
1:15 AM,24.8,15.8,69,30.01,10.0,North,13.8,19.6,N/A,,Overcast,360,2012-12-26 07:15:00
1:35 AM,24.8,15.8,69,30.01,10.0,North,18.4,26.5,N/A,,Overcast,350,2012-12-26 07:35:00
1:55 AM,23.0,15.8,74,30.02,10.0,North,11.5,-,N/A,,Overcast,350,2012-12-26 07:55:00
2:15 AM,23.0,15.8,74,30.03,10.0,North,19.6,23.0,N/A,,Overcast,360,2012-12-26 08:15:00
3:15 AM,21.2,12.2,68,30.05,10.0,NNW,10.4,17.3,N/A,,Overcast,330,2012-12-26 09:15:00
3:55 AM,21.2,12.2,68,30.04,10.0,NNW,9.2,-,N/A,,Overcast,340,2012-12-26 09:55:00
4:15 AM,19.4,12.2,74,30.05,10.0,North,12.7,18.4,N/A,,Overcast,350,2012-12-26 10:15:00
4:55 AM,19.4,12.2,74,30.06,10.0,North,11.5,16.1,N/A,,Mostly Cloudy,350,2012-12-26 10:55:00
5:15 AM,19.4,12.2,74,30.06,10.0,North,11.5,-,N/A,,Scattered Clouds,350,2012-12-26 11:15:00
5:55 AM,19.4,12.2,74,30.06,10.0,NNW,10.4,-,N/A,,Overcast,340,2012-12-26 11:55:00
6:15 AM,19.4,12.2,74,30.07,10.0,NNW,6.9,-,N/A,,Overcast,340,2012-12-26 12:15:00
6:35 AM,19.4,12.2,74,30.07,10.0,North,9.2,-,N/A,,Overcast,350,2012-12-26 12:35:00
6:55 AM,19.4,12.2,74,30.08,10.0,NNW,10.4,-,N/A,,Overcast,340,2012-12-26 12:55:00
7:36 AM,21.2,12.2,68,30.09,10.0,North,10.4,-,N/A,,Overcast,350,2012-12-26 13:36:00
8:15 AM,21.2,14.0,74,30.11,10.0,North,6.9,-,N/A,,Overcast,350,2012-12-26 14:15:00
8:35 AM,21.2,14.0,74,30.11,10.0,NNW,8.1,-,N/A,,Overcast,340,2012-12-26 14:35:00
8:55 AM,21.2,14.0,74,30.12,10.0,North,6.9,-,N/A,,Overcast,350,2012-12-26 14:55:00
9:15 AM,21.2,14.0,74,30.13,10.0,North,6.9,-,N/A,,Overcast,350,2012-12-26 15:15:00
9:35 AM,23.0,15.8,74,30.13,10.0,North,6.9,-,N/A,,Overcast,350,2012-12-26 15:35:00
9:55 AM,24.8,15.8,69,30.15,10.0,North,8.1,-,N/A,,Overcast,350,2012-12-26 15:55:00
10:15 AM,24.8,15.8,69,30.16,10.0,NNW,8.1,-,N/A,,Overcast,340,2012-12-26 16:15:00
11:15 AM,26.6,17.6,69,30.15,10.0,North,9.2,-,N/A,,Overcast,360,2012-12-26 17:15:00
11:55 AM,28.4,17.6,64,30.14,10.0,North,6.9,-,N/A,,Mostly Cloudy,350,2012-12-26 17:55:00
12:15 PM,28.4,15.8,59,30.13,10.0,North,6.9,17.3,N/A,,Partly Cloudy,10,2012-12-26 18:15:00
12:35 PM,30.2,17.6,60,30.12,10.0,NE,6.9,-,N/A,,Clear,40,2012-12-26 18:35:00
12:55 PM,30.2,17.6,60,30.13,10.0,WNW,9.2,-,N/A,,Clear,300,2012-12-26 18:55:00
1:15 PM,30.2,17.6,60,30.12,10.0,North,5.8,-,N/A,,Clear,350,2012-12-26 19:15:00
1:35 PM,32.0,17.6,55,30.11,10.0,North,8.1,-,N/A,,Clear,350,2012-12-26 19:35:00
2:15 PM,33.8,17.6,52,30.11,10.0,North,11.5,16.1,N/A,,Clear,360,2012-12-26 20:15:00
2:35 PM,33.8,17.6,52,30.10,10.0,North,10.4,-,N/A,,Clear,10,2012-12-26 20:35:00
2:55 PM,33.8,17.6,52,30.10,10.0,North,9.2,-,N/A,,Clear,10,2012-12-26 20:55:00
3:15 PM,32.0,17.6,55,30.11,10.0,North,10.4,-,N/A,,Clear,10,2012-12-26 21:15:00
3:35 PM,30.2,17.6,60,30.11,10.0,NNE,8.1,-,N/A,,Clear,20,2012-12-26 21:35:00
3:55 PM,30.2,17.6,60,30.10,10.0,North,8.1,-,N/A,,Clear,10,2012-12-26 21:55:00
4:15 PM,30.2,17.6,60,30.11,10.0,North,8.1,-,N/A,,Clear,360,2012-12-26 22:15:00
4:35 PM,30.2,17.6,60,30.11,10.0,North,6.9,-,N/A,,Clear,360,2012-12-26 22:35:00
4:55 PM,28.4,17.6,64,30.12,10.0,NNW,5.8,-,N/A,,Clear,340,2012-12-26 22:55:00
5:15 PM,28.4,17.6,64,30.13,10.0,NNW,6.9,-,N/A,,Clear,340,2012-12-26 23:15:00
5:35 PM,28.4,17.6,64,30.13,10.0,North,6.9,-,N/A,,Clear,10,2012-12-26 23:35:00
5:55 PM,26.6,17.6,69,30.14,10.0,North,9.2,-,N/A,,Clear,10,2012-12-26 23:55:00
6:15 PM,26.6,17.6,69,30.14,10.0,North,6.9,-,N/A,,Clear,10,2012-12-27 00:15:00
7:15 PM,26.6,17.6,69,30.12,10.0,NE,8.1,-,N/A,,Clear,50,2012-12-27 01:15:00
7:35 PM,26.6,17.6,69,30.11,10.0,ENE,10.4,-,N/A,,Clear,70,2012-12-27 01:35:00
7:55 PM,26.6,17.6,69,30.12,10.0,NNE,8.1,-,N/A,,Clear,30,2012-12-27 01:55:00
8:15 PM,26.6,17.6,69,30.12,10.0,NE,4.6,-,N/A,,Clear,40,2012-12-27 02:15:00
8:35 PM,26.6,17.6,69,30.12,10.0,ENE,5.8,-,N/A,,Clear,60,2012-12-27 02:35:00
9:15 PM,26.6,17.6,69,30.12,10.0,North,4.6,-,N/A,,Clear,10,2012-12-27 03:15:00
9:35 PM,24.8,17.6,74,30.11,10.0,NE,4.6,-,N/A,,Clear,40,2012-12-27 03:35:00
9:55 PM,24.8,17.6,74,30.12,10.0,Calm,Calm,-,N/A,,Clear,0,2012-12-27 03:55:00
10:15 PM,24.8,17.6,74,30.11,10.0,Calm,Calm,-,N/A,,Clear,0,2012-12-27 04:15:00
10:35 PM,24.8,17.6,74,30.11,10.0,Calm,Calm,-,N/A,,Clear,0,2012-12-27 04:35:00
10:55 PM,24.8,17.6,74,30.09,10.0,East,4.6,-,N/A,,Clear,80,2012-12-27 04:55:00
11:15 PM,24.8,17.6,74,30.10,10.0,East,4.6,-,N/A,,Clear,100,2012-12-27 05:15:00
11:35 PM,24.8,17.6,74,30.10,10.0,ESE,4.6,-,N/A,,Clear,120,2012-12-27 05:35:00
11:55 PM,24.8,17.6,74,30.09,10.0,East,5.8,-,N/A,,Clear,80,2012-12-27 05:55:00